Theta_e
310 310 310 310 309 309 308 309 309 309 308 305 302 302 302 302 302 302 302 303 305 306 306 306 307 310 316 317 316 322 319 320 322 322 322 319 319 322 328 327 327 328 330 337 340 337 341
309 309 310 310 309 308 308 308 308 308 307 305 303 302 302 302 302 302 302 303 304 306 307 307 309 311 318 317 321 318 321 326 324 323 321 319 321 324 328 327 326 327 338 339 337 338 340
309 309 309 309 310 308 308 308 308 307 305 304 303 302 302 302 302 302 303 304 305 306 307 312 313 319 321 317 323 321 321 325 324 323 319 321 321 324 324 327 325 337 339 338 339 340 348
308 308 308 308 308 307 307 308 307 307 305 304 302 301 302 302 302 302 303 305 306 307 318 321 314 320 317 324 322 323 328 321 321 324 322 322 322 320 324 325 333 337 337 342 340 341 345
308 308 308 308 308 307 306 306 306 305 305 305 304 302 301 302 302 302 303 306 307 319 315 315 322 321 323 325 324 328 328 321 319 321 321 320 321 320 322 326 334 333 342 341 344 341 345
308 308 307 308 307 306 306 306 305 303 303 304 304 303 302 301 301 302 304 308 314 324 325 324 325 325 321 323 324 326 325 321 319 316 318 318 315 320 319 329 340 339 342 339 346 341 344
308 307 307 307 307 306 306 305 303 303 303 304 304 302 302 301 301 302 307 311 310 313 322 320 320 323 322 321 324 325 324 320 316 315 315 314 317 318 322 324 333 332 339 343 342 340 343
307 307 307 306 306 306 306 304 305 305 306 304 303 302 302 301 302 304 307 307 311 310 308 311 313 316 319 323 323 322 324 321 319 317 315 317 317 318 321 324 327 334 333 338 335 339 343
307 306 306 306 306 305 305 304 305 306 305 302 302 302 303 301 302 312 303 305 310 307 310 313 314 316 316 318 321 323 321 319 319 318 315 315 318 319 325 326 325 326 325 326 337 342 345
306 305 306 304 305 304 304 304 305 305 302 301 301 302 304 301 303 303 306 309 306 308 314 317 319 319 320 321 322 323 323 321 317 318 315 315 317 321 324 327 326 327 324 326 336 343 344
306 305 305 305 305 304 303 303 304 305 304 301 300 300 304 304 304 306 306 306 307 310 321 320 322 321 319 319 320 322 322 320 322 318 316 318 318 321 326 326 325 327 325 327 335 338 342
306 305 305 305 305 303 304 302 303 305 303 300 300 299 304 304 304 303 306 305 310 315 321 320 324 322 323 322 321 320 322 320 320 319 316 318 318 319 320 325 327 323 320 321 323 330 339
306 305 305 304 305 304 304 301 301 304 302 298 300 299 302 304 305 304 305 306 313 317 317 320 321 319 320 321 322 321 320 319 320 320 319 318 318 321 322 323 324 320 321 324 327 335 337
306 305 304 304 304 304 303 302 302 303 300 298 299 300 302 303 304 305 305 306 317 317 317 317 319 318 320 319 320 322 318 322 318 317 317 316 317 319 320 322 322 321 321 323 326 328 336
305 305 305 304 303 304 302 302 303 302 300 299 300 303 305 307 308 306 303 306 311 317 320 322 318 320 320 319 320 321 319 318 320 315 318 316 317 318 320 321 321 321 321 320 319 321 324
305 305 305 304 304 303 303 303 303 302 300 300 304 303 303 310 310 306 304 305 308 314 317 314 319 319 320 318 318 319 319 319 319 317 315 316 319 317 320 322 321 321 318 323 318 325 329
305 305 304 304 303 303 303 303 302 302 301 301 303 300 306 310 307 304 304 304 308 309 311 312 317 319 318 318 318 318 319 319 320 320 314 314 315 317 319 320 320 321 321 318 318 319 323
304 304 303 303 303 303 303 303 303 302 302 302 302 298 308 308 310 304 306 306 309 311 312 313 315 315 315 316 315 317 318 318 319 318 318 314 316 318 317 318 319 320 319 319 323 321 319
305 304 304 303 302 304 303 303 302 302 302 303 302 302 305 306 312 311 310 314 315 318 317 318 316 313 314 316 319 316 316 318 318 318 319 315 313 318 317 316 320 320 320 317 316 317 322
304 305 304 304 304 304 303 302 302 302 301 303 303 303 304 303 303 308 306 308 313 316 318 318 318 317 317 319 317 318 321 325 325 326 339 328 313 318 321 319 319 322 323 320 319 321 322
304 304 304 304 304 303 303 303 303 302 302 303 304 304 306 310 309 309 306 308 314 316 316 317 319 320 320 320 323 320 320 322 328 331 325 314 318 316 321 318 320 321 323 322 322 321 325
304 303 303 303 303 304 304 302 302 302 302 304 308 308 305 307 308 306 308 309 314 314 313 315 319 321 320 322 324 325 325 326 330 332 328 316 317 315 321 319 320 321 322 324 324 323 323
304 303 304 304 304 304 304 301 301 303 302 302 302 303 306 309 310 309 308 311 312 312 313 313 316 318 325 326 321 323 323 324 329 329 333 323 316 316 321 318 318 319 321 321 323 323 324
303 303 303 303 304 303 303 303 302 302 303 302 301 302 307 308 311 312 311 312 312 312 312 311 311 314 323 313 316 319 321 323 324 326 329 335 319 315 322 321 322 321 324 322 325 331 329
303 303 303 303 302 303 304 302 302 301 302 303 302 301 305 309 309 311 311 310 308 308 308 312 313 316 309 315 322 325 327 329 329 332 332 329 319 321 321 319 323 334 334 333 333 334 333
303 303 303 303 302 302 303 302 302 302 302 303 303 303 301 304 307 308 310 310 310 307 306 309 313 308 314 318 324 327 331 332 335 332 329 329 328 327 323 324 332 331 333 333 332 335 331
303 303 303 302 302 303 302 303 302 302 302 302 303 302 303 306 305 307 308 308 306 308 308 307 308 312 319 322 325 326 326 327 337 337 338 336 337 337 333 333 333 333 332 332 334 331 330
303 303 302 302 301 301 301 302 302 302 301 303 303 302 303 305 304 306 306 307 307 307 309 309 311 319 322 328 329 328 326 329 333 332 335 336 342 343 337 337 338 330 333 333 332 328 330
302 302 302 302 301 301 301 301 301 301 301 302 303 302 303 303 304 304 304 305 306 307 307 307 307 311 320 321 323 325 331 328 331 340 333 339 339 339 335 334 330 329 327 327 328 329 329
Wind_Speed
22 23 24 24 25 26 26 26 25 26 27 28 29 28 28 30 31 30 30 30 28 28 30 31 26 10 3 1 11 23 19 12 6 23 20 8 7 7 6 5 4 6 2 8 9 12 11
21 22 22 23 25 27 27 27 28 28 29 30 30 30 29 29 31 33 33 32 31 29 30 28 18 3 1 5 8 7 11 3 10 22 14 9 8 7 5 4 4 3 4 9 7 9 5
24 24 24 23 24 25 27 28 29 30 32 32 31 32 32 31 32 34 34 34 33 31 26 17 6 5 1 17 15 12 15 3 12 17 7 12 5 3 4 1 3 5 7 9 3 4 5
24 25 26 26 26 27 28 27 28 30 33 33 33 33 33 34 34 35 35 33 32 26 12 6 7 5 7 9 11 16 10 6 6 19 8 11 10 3 3 1 5 3 5 6 4 6 8
23 25 25 25 27 29 31 32 32 33 33 34 35 35 33 34 38 37 37 32 27 5 3 5 4 3 9 8 8 7 10 5 10 12 14 6 6 3 1 6 4 4 7 3 3 6 7
23 24 24 25 26 28 30 32 35 34 34 35 36 36 35 37 38 39 36 26 4 1 2 1 1 1 6 3 5 11 5 9 2 6 4 3 3 3 3 4 6 7 7 3 7 9 9
22 22 23 24 25 28 30 33 34 33 33 35 37 37 38 39 39 37 25 4 4 2 2 6 5 5 10 12 12 3 4 5 4 4 6 5 4 7 10 9 7 7 8 17 1 3 3
22 23 24 23 25 27 28 32 32 33 34 35 36 36 40 39 39 22 8 4 4 1 10 11 19 15 22 2 5 11 4 6 4 6 2 3 9 9 8 6 8 9 7 10 2 4 4
22 23 24 24 25 28 29 32 31 32 34 37 37 37 41 39 27 3 21 3 2 13 3 9 7 6 7 13 13 18 9 5 5 7 4 6 4 10 8 5 7 6 9 6 14 6 3
23 23 25 26 29 30 31 30 31 32 34 37 39 38 41 42 4 22 12 4 17 2 3 8 5 6 4 8 5 16 15 7 4 12 7 6 6 11 9 11 8 7 8 7 9 10 6
24 25 26 26 28 31 32 32 33 34 36 37 40 38 38 26 18 8 4 21 18 3 5 4 4 3 3 8 3 6 10 4 9 6 6 7 5 8 5 8 9 8 8 11 8 8 5
23 24 24 25 28 31 34 35 33 34 37 40 41 39 36 13 11 22 10 18 1 4 7 6 3 0 4 2 5 3 6 4 6 6 3 10 3 8 11 5 9 10 7 6 4 4 1
22 25 26 23 26 30 33 35 33 35 39 41 45 40 34 17 6 5 10 4 2 5 4 4 1 3 3 5 5 2 8 7 6 6 6 2 7 3 4 5 1 6 7 2 2 2 6
23 26 25 25 26 27 32 35 34 37 39 42 47 38 24 20 14 11 3 4 6 5 8 5 4 4 2 4 6 6 5 5 2 6 4 7 6 8 4 7 8 6 9 6 6 5 5
24 24 24 24 25 25 30 32 33 37 39 45 43 23 14 5 6 13 4 4 8 7 5 2 5 2 3 4 4 3 4 9 10 10 10 7 7 4 4 5 9 4 4 6 7 2 2
24 23 24 24 25 26 27 30 32 36 39 38 30 13 9 9 8 11 4 6 7 6 2 3 3 3 1 3 6 5 3 4 6 11 6 8 1 8 6 2 3 9 9 4 3 5 5
23 23 23 23 24 24 26 28 31 34 37 28 9 4 10 3 12 4 4 7 7 8 4 4 4 1 1 1 5 3 6 5 5 4 9 7 5 6 6 12 14 3 3 5 6 5 7
23 23 22 22 23 24 23 26 27 31 35 21 5 3 6 8 1 1 3 6 5 5 3 4 1 5 7 6 5 7 9 9 6 6 5 10 10 10 12 4 6 11 11 9 7 6 2
23 24 21 24 24 22 21 23 24 26 25 17 4 4 3 2 3 3 5 5 3 3 4 2 4 6 4 6 4 8 9 9 15 8 7 7 5 10 7 6 2 5 5 6 5 4 8
23 22 20 21 21 19 18 19 19 22 22 12 3 4 4 3 0 2 5 5 4 5 6 5 6 4 3 5 7 6 4 4 5 5 15 13 6 12 18 17 6 5 7 7 7 5 6
23 22 21 21 17 17 18 18 16 19 20 5 2 4 1 4 2 3 2 4 4 4 3 3 4 8 10 8 7 9 11 15 5 2 7 4 13 11 22 11 8 8 8 10 8 7 8
23 21 20 20 20 19 16 16 16 16 18 3 3 3 4 4 4 4 2 3 3 4 3 6 6 9 9 10 11 9 9 7 5 4 5 4 7 7 20 16 12 10 8 10 9 3 7
23 22 22 22 21 18 17 15 14 12 10 3 4 4 2 4 4 2 3 1 7 11 9 12 8 6 11 8 7 9 7 6 7 7 3 3 2 3 12 7 7 7 20 10 7 6 10
23 23 24 24 21 19 18 17 14 11 6 3 4 3 3 5 4 4 8 9 15 10 9 13 13 5 5 8 9 6 5 7 7 5 6 3 1 4 14 4 6 13 6 14 16 5 7
23 24 24 24 23 20 19 17 14 11 9 8 3 2 2 5 7 11 9 6 10 11 6 9 11 7 7 5 3 3 2 1 4 6 3 3 2 3 5 6 4 1 3 5 8 6 2
24 25 25 23 22 21 21 19 15 13 13 10 11 11 3 4 5 10 3 7 6 4 5 5 7 7 2 2 2 6 6 6 3 4 2 6 6 4 3 7 7 4 3 3 4 1 6
26 26 24 23 20 20 18 17 16 16 15 12 9 7 4 4 9 11 7 5 4 3 3 5 7 7 4 0 2 3 5 1 7 13 3 6 5 2 1 1 3 4 9 4 5 3 4
23 23 22 21 18 17 17 17 16 13 14 11 8 10 9 4 12 13 12 10 8 4 3 5 7 2 3 2 2 2 1 1 1 11 14 4 2 3 3 4 0 13 7 5 5 7 5
21 20 19 18 15 18 19 15 14 14 13 10 6 10 7 5 6 24 29 31 24 20 5 4 3 3 3 1 2 2 2 2 2 4 6 7 5 4 1 2 6 9 3 4 2 16 11
Wind_Direction
4 359 358 357 357 356 355 353 352 351 350 349 348 348 346 343 340 340 338 333 331 325 325 322 319 313 351 244 247 277 296 301 228 183 180 161 151 155 184 197 188 217 205 161 170 165 154
358 358 356 354 353 354 353 351 349 348 349 349 349 345 345 342 338 337 335 330 328 322 320 317 314 200 228 251 260 281 350 293 179 166 177 160 184 194 175 205 146 273 141 138 110 102 102
357 355 354 352 350 351 351 350 348 348 350 349 348 347 344 341 338 336 332 327 325 320 318 311 298 139 207 241 272 262 290 274 188 168 152 197 171 122 136 208 237 145 103 68 77 113 102
352 352 351 349 348 348 349 348 348 346 348 348 347 346 344 342 338 335 329 325 322 319 320 306 148 132 239 270 282 276 273 226 186 197 170 207 221 184 193 191 39 89 60 115 207 146 170
349 349 349 347 345 347 347 347 346 346 347 347 347 346 344 339 337 338 328 325 318 331 21 121 116 135 268 300 279 323 221 191 161 177 189 127 143 192 67 107 49 339 150 134 173 199 148
346 346 346 344 344 346 345 343 343 343 345 345 346 346 344 339 336 336 329 324 322 82 77 34 95 11 265 263 318 303 287 177 137 114 108 154 77 115 45 98 186 180 167 123 198 193 164
342 343 343 341 342 344 344 341 342 342 343 345 346 347 344 338 338 333 334 354 7 342 205 222 201 253 284 280 290 270 37 119 119 103 160 186 141 182 187 184 180 151 170 186 176 25 37
340 340 342 342 343 343 341 342 343 343 343 345 344 347 342 337 340 335 9 19 98 350 301 231 248 250 246 312 305 277 203 142 133 198 172 109 207 195 176 174 166 165 154 206 327 142 141
336 338 340 340 340 342 338 340 341 341 340 343 343 347 343 337 337 10 331 262 326 341 250 289 220 232 223 182 220 254 158 151 152 176 204 168 232 146 142 173 134 166 171 163 219 145 64
335 339 336 339 339 341 338 339 339 339 341 343 341 345 343 338 9 328 304 163 327 280 0 276 269 266 148 144 228 219 181 148 168 186 159 217 218 164 156 175 148 158 207 161 141 145 200
334 335 335 337 338 342 342 340 341 340 340 341 339 339 338 340 300 297 305 315 326 143 326 247 273 183 155 162 190 216 175 109 176 163 132 236 191 164 166 185 164 209 150 156 160 170 116
327 329 329 331 335 340 340 341 339 339 338 337 335 334 333 330 287 282 321 334 85 52 251 303 245 340 102 240 289 72 141 103 158 172 142 220 225 163 185 184 175 141 101 62 63 98 114
323 326 329 329 333 337 336 338 338 336 336 334 333 329 317 276 236 275 336 6 54 182 312 263 313 14 206 217 219 210 152 158 163 162 210 278 248 213 148 135 33 85 78 3 32 70 209
320 323 327 329 330 332 332 338 339 337 337 334 330 329 310 274 262 261 292 65 210 227 241 286 284 324 281 14 220 158 110 190 239 119 146 174 235 187 179 166 165 178 150 156 186 181 225
316 317 321 324 326 329 332 340 341 339 339 337 331 327 298 309 259 189 101 192 201 203 228 293 331 69 327 345 69 67 204 192 191 178 188 165 251 297 184 148 144 187 154 187 113 39 91
313 315 317 322 325 328 333 340 341 341 341 343 327 318 293 320 165 146 99 221 216 217 258 46 208 224 228 47 29 31 298 227 207 182 178 214 257 226 245 144 217 167 167 98 3 144 219
310 311 313 315 321 325 330 337 341 343 343 347 340 336 347 131 139 52 189 227 225 245 232 215 209 228 97 342 187 210 233 277 200 210 178 160 137 265 146 209 211 125 156 61 123 136 172
308 312 315 316 317 321 328 331 338 344 348 356 3 329 79 143 37 149 204 200 238 242 188 236 156 213 197 201 234 223 215 218 184 127 160 210 197 222 218 229 204 194 182 164 191 229 210
306 310 307 314 313 316 320 326 334 343 354 337 317 275 330 188 227 252 297 296 285 270 260 233 240 198 189 205 237 201 216 233 236 165 211 182 220 224 282 295 221 189 171 127 118 94 189
306 303 303 311 311 311 318 322 331 341 345 339 312 326 310 35 255 25 351 271 262 276 258 219 223 260 253 253 232 254 245 271 211 221 289 192 177 196 224 229 178 193 176 178 154 147 173
303 303 306 307 305 309 314 319 328 337 343 331 242 253 244 305 322 345 256 293 281 267 282 260 279 218 212 221 224 224 244 264 257 51 342 134 197 199 224 193 179 205 180 172 178 187 167
300 301 303 304 303 307 313 321 322 328 343 291 300 327 345 293 293 310 196 272 304 321 265 257 210 260 275 226 208 232 210 202 191 356 29 342 261 196 229 208 194 224 212 178 196 134 245
299 298 296 296 295 298 299 303 312 316 342 346 329 311 272 286 308 314 243 333 308 323 263 244 279 333 285 251 312 265 226 265 213 119 244 286 191 110 240 180 177 233 232 209 191 182 173
298 295 294 292 286 287 291 292 297 304 281 248 289 290 275 276 254 260 311 313 295 297 291 279 298 254 250 327 280 246 237 255 172 151 161 245 177 167 242 92 169 235 190 215 213 189 206
299 297 295 292 291 283 284 287 278 283 271 251 228 212 285 274 282 285 270 290 300 291 257 271 273 259 343 309 308 263 265 211 29 68 94 194 201 284 181 165 240 64 55 142 157 220 269
295 296 297 299 295 287 282 284 278 275 268 250 252 237 222 280 242 262 337 297 284 285 318 268 307 314 302 203 173 187 198 166 142 101 86 331 264 133 316 148 184 218 312 41 268 112 6
292 291 294 298 295 289 282 279 276 272 260 251 247 239 226 265 263 272 257 274 292 333 276 296 341 323 3 350 195 198 227 183 153 168 96 281 321 116 290 197 297 12 320 313 140 211 327
294 294 287 295 296 293 285 278 276 261 259 247 249 236 207 256 275 264 262 267 283 277 261 335 329 313 328 8 193 248 241 329 124 172 194 214 276 212 224 46 188 357 342 174 147 137 108
293 297 286 291 295 290 291 281 278 275 270 258 236 258 235 222 272 295 277 262 249 241 294 293 270 274 242 288 276 270 311 344 168 130 171 183 178 171 163 76 306 309 318 349 97 101 103